Location: Gombori
(14.9797°N, 2.9419°W)
Time: 00:06:58
(UTC+00:00)

Skynet4D Del rocket - Pass Details

Date: 29 July 2021
Orbit: 763 x 1291 km, 26.9° (Epoch: 20 September)

Event Time Altitude Azimuth Distance (km) Brightness Sun altitude
Rises 20:52:43 0° 293° (WNW) 4,253 8.5 -29.3°
Reaches altitude 10° 20:55:41 10° 294° (WNW) 3,283 7.6 -29.9°
Maximum altitude 21:04:05 90° 204° (SSW) 1,246 4.4 -31.6°
Enters shadow 21:04:34 81° 118° (ESE) 1,254 4.3 -31.7°
